CAPE
7 7 6 4 2 1 1 3 2 3 3 5 5 6 6 6 1 0 0 0 0 0 0 3 0 0 0 0 0 0 0 0 0 0 0 0 0 0 0 0 0 0 0 0 5
6 6 6 2 3 4 4 2 3 3 4 7 9 8 10 7 0 0 0 0 0 0 0 21 6 0 0 0 0 0 0 0 0 0 0 0 0 0 0 0 0 0 0 2 8
9 10 6 4 5 3 2 3 5 4 7 12 14 18 15 7 0 0 1 0 0 1 3 0 10 4 0 0 0 0 0 0 0 0 0 0 0 0 0 0 0 0 0 1 8
13 10 7 7 5 4 4 3 3 1 7 14 14 13 14 2 0 0 0 0 0 3 13 11 11 12 0 0 0 0 0 0 0 0 0 0 0 0 0 0 0 0 0 2 11
13 11 8 6 6 5 3 3 1 2 7 8 8 17 15 0 0 0 0 0 0 0 15 6 9 0 0 0 0 0 0 0 0 0 0 0 0 0 0 0 0 0 0 5 2
11 11 10 10 10 6 3 1 0 2 7 4 7 8 7 0 0 0 0 0 0 0 0 17 8 1 0 0 0 0 0 0 0 0 0 0 0 0 0 0 0 0 0 4 0
12 13 9 6 7 4 4 0 0 1 2 0 15 3 4 0 0 0 0 0 0 0 0 0 34 11 0 0 0 0 0 0 0 0 0 0 0 0 0 0 0 0 0 0 0
13 13 9 5 5 8 2 0 0 0 0 0 0 28 5 0 0 0 0 0 0 0 0 0 12 0 0 1 0 0 1 7 0 0 0 0 0 0 0 0 0 0 0 7 0
16 13 8 6 7 7 0 0 0 0 0 0 0 8 0 0 0 0 2 0 0 1 0 0 7 32 0 2 8 12 9 9 4 0 0 0 0 0 0 0 0 0 0 0 1
15 11 7 3 4 2 0 0 0 0 0 0 0 0 0 0 0 0 0 0 0 6 41 40 2 12 8 59 59 12 7 5 11 0 0 0 0 0 0 0 0 0 0 0 0
9 8 6 3 3 0 0 0 0 0 0 0 0 0 0 0 0 0 0 8 51 11 42 26 16 21 1 6 28 4 9 14 2 0 0 0 0 0 0 0 0 0 0 0 0
10 8 6 2 0 0 0 0 20 28 7 0 0 0 0 0 0 0 7 27 8 26 56 23 67 8 26 0 0 7 12 23 16 0 1 0 0 0 0 0 0 0 0 0 0
9 6 8 0 0 0 0 1 14 9 12 0 0 0 0 0 0 0 9 20 5 23 47 20 12 5 10 27 26 15 10 31 29 0 0 0 0 0 0 0 0 0 0 0 1
6 7 10 0 0 0 0 0 3 5 6 0 0 0 0 0 0 2 10 11 26 25 11 33 0 6 9 25 34 39 3 24 13 15 39 0 10 0 0 0 0 0 0 0 0
4 4 0 0 0 0 0 0 1 10 0 0 0 0 0 1 11 38 3 14 46 6 28 37 8 49 88 37 21 19 37 30 21 32 17 1 7 0 0 0 0 0 0 0 0
3 2 0 0 0 0 0 0 0 1 0 0 0 0 0 0 0 5 27 7 6 20 1 3 23 43 50 1 21 4 34 10 34 47 42 10 8 0 0 0 0 0 0 0 0
3 0 0 0 0 0 0 0 0 0 0 0 0 1 0 1 0 10 20 7 63 56 66 31 6 0 12 4 4 61 103 98 96 70 22 0 1 3 0 0 0 0 0 0 0
0 0 0 0 0 0 0 0 0 0 2 2 4 0 1 2 0 8 3 76 20 3 19 57 42 0 4 6 2 27 52 75 49 40 8 0 4 0 0 0 0 0 0 0 0
0 0 0 0 0 0 0 0 12 12 12 15 1 6 5 2 9 10 9 15 35 36 38 6 3 0 0 1 0 6 14 0 0 0 0 0 0 0 0 0 0 0 0 0 0
0 0 0 0 0 0 0 1 3 7 13 12 34 7 12 2 8 22 12 15 18 4 12 0 8 0 0 1 1 2 0 2 0 0 0 0 0 0 0 0 0 0 0 0 0
0 0 0 0 0 0 0 0 0 0 10 16 11 19 12 10 11 32 19 11 13 19 3 0 0 3 0 3 1 0 2 0 0 0 0 0 0 0 0 0 0 0 0 0 0
0 0 0 0 0 0 0 0 0 0 2 21 4 18 12 7 14 39 20 24 30 20 10 1 0 8 2 0 0 0 0 0 19 0 0 0 0 0 0 0 0 0 0 0 0
0 0 0 0 0 0 0 0 0 0 0 10 5 20 10 14 13 10 6 23 16 11 26 13 1 6 5 0 0 0 0 0 0 0 0 14 0 0 0 0 0 0 0 0 0
0 0 0 0 1 2 2 0 0 0 0 0 9 2 4 2 2 3 0 0 5 1 24 4 0 0 7 0 0 0 0 0 0 0 0 0 0 0 0 0 0 0 0 0 0
0 0 0 0 1 2 0 2 0 1 0 0 2 6 16 5 0 1 1 0 0 0 0 0 2 0 0 0 0 0 0 0 0 0 0 0 0 0 0 0 0 0 0 0 0
0 0 0 0 0 0 0 0 0 1 1 0 12 10 2 10 20 11 5 2 4 0 0 0 3 0 0 0 0 0 0 0 0 0 0 0 0 0 0 0 0 0 0 0 0
1 1 0 0 0 0 0 0 0 3 0 0 16 19 4 13 14 28 6 1 1 1 0 0 0 0 0 0 0 0 0 0 0 0 0 0 0 0 0 0 0 0 0 0 0
CIN
-0 -0 -0 -0 -0 -0 -0 -0 -0 -0 -0 -0 -0 -0 -0 -0 -0 -0 -0 -0 -0 -0 -0 -0 -0 -0 -0 -0 -0 -0 -0 -0 -0 -0 -0 -0 -0 -0 -0 -0 -0 -0 -0 -0 -0
-0 -0 -0 -0 -0 -0 -0 -0 -0 -0 -0 -0 -0 -0 -0 -0 -0 -0 -0 -0 -0 -0 -0 -0 -0 -0 -0 -0 -0 -0 -0 -0 -0 -0 -0 -0 -0 -0 -0 -0 -0 -0 -0 -0 -0
-0 -0 -0 -0 -0 -0 -0 -0 -0 -0 -0 -0 -0 -0 -0 -0 -0 -0 -1 -0 -0 -0 -0 -0 -0 -0 -0 -0 -0 -0 -0 -0 -0 -0 -0 -0 -0 -0 -0 -0 -0 -0 -0 -1 -1
-0 -0 -0 -0 -0 -0 -0 -0 -0 -0 -0 -0 -0 -0 -0 -0 -0 -0 -0 -0 -0 -7 -0 -0 -0 -0 -0 -0 -0 -0 -0 -0 -0 -0 -0 -0 -0 -0 -0 -0 -0 -0 -0 -0 -0
-0 -0 -0 -0 -0 -0 -0 -0 -0 -0 -0 -0 -0 -0 -0 -0 -0 -0 -0 -0 -0 -0 -2 -5 -0 -0 -0 -0 -0 -0 -0 -0 -0 -0 -0 -0 -0 -0 -0 -0 -0 -0 -0 -0 -1
-0 -0 -0 -0 -0 -0 -0 -0 -0 -0 -0 -0 -0 -0 -0 -0 -0 -0 -0 -0 -0 -0 -1 -3 -5 -0 -0 -0 -0 -0 -0 -0 -0 -0 -0 -0 -0 -0 -0 -0 -0 -0 -0 -0 -0
-0 -0 -0 -0 -0 -0 -0 -0 -0 -0 -0 -0 -0 -0 -0 -0 -0 -0 -0 -0 -0 -0 -0 -0 -8 -0 -0 -0 -0 -0 -0 -0 -0 -0 -0 -0 -0 -0 -0 -0 -0 -0 -0 -0 -0
-0 -0 -0 -0 -0 -0 -0 -0 -0 -0 -0 -0 -0 -0 -0 -0 -0 -0 -0 -0 -0 -0 -0 -0 -38 -0 -0 -1 -0 -0 -0 -0 -0 -0 -0 -0 -0 -0 -0 -0 -0 -0 -0 -0 -0
-0 -0 -0 -0 -0 -0 -0 -0 -0 -0 -0 -0 -0 -0 -0 -0 -0 -0 -8 -2 -0 -3 -0 -0 -29 -4 -0 -4 -4 -1 -0 -0 -0 -0 -0 -0 -0 -0 -0 -0 -0 -0 -0 -0 -0
-0 -0 -0 -0 -0 -0 -0 -0 -0 -0 -0 -0 -0 -0 -0 -0 -0 -0 -0 -0 -0 -11 -7 -0 -34 -2 -0 -0 -0 -0 -0 -0 -0 -0 -0 -0 -0 -0 -0 -0 -0 -0 -0 -0 -0
-0 -0 -0 -0 -0 -0 -0 -0 -0 -0 -0 -0 -0 -0 -0 -0 -0 -0 -0 -0 -0 -9 -0 -0 -2 -2 -0 -0 -1 -2 -0 -0 -0 -0 -0 -0 -0 -0 -0 -0 -0 -0 -0 -0 -0
-0 -0 -0 -0 -0 -0 -0 -0 -0 -0 -0 -0 -0 -0 -0 -0 -0 -0 -1 -0 -14 -0 -0 -1 -0 -6 -0 -0 -0 -0 -0 -0 -4 -0 -0 -0 -0 -0 -0 -0 -0 -0 -0 -0 -0
-0 -0 -0 -0 -0 -0 -0 -0 -0 -0 -0 -0 -0 -0 -0 -0 -0 -0 -0 -0 -0 -0 -0 -0 -51 -0 -9 -12 -0 -0 -0 -0 -1 -0 -0 -0 -0 -0 -0 -0 -0 -0 -0 -0 -0
-0 -0 -0 -0 -0 -0 -0 -0 -0 -0 -0 -0 -0 -0 -0 -0 -0 -6 -0 -1 -0 -0 -0 -1 -0 -17 -31 -0 -1 -10 -2 -0 -0 -0 -0 -0 -0 -0 -0 -0 -0 -0 -0 -0 -0
-0 -0 -0 -0 -0 -0 -0 -0 -0 -0 -0 -0 -0 -0 -0 -0 -0 -4 -0 -0 -0 -0 -0 -0 -13 -3 -0 -4 -2 -11 -0 -0 -0 -0 -0 -0 -0 -0 -0 -0 -0 -0 -0 -0 -0
-0 -0 -0 -0 -0 -0 -0 -0 -0 -0 -0 -0 -0 -0 -0 -0 -0 -0 -0 -0 -0 -0 -0 -11 -1 -10 -15 -21 -3 -4 -2 -3 -0 -0 -0 -0 -0 -0 -0 -0 -0 -0 -0 -0 -0
-0 -0 -0 -0 -0 -0 -0 -0 -0 -0 -0 -0 -0 -0 -0 -0 -0 -0 -0 -0 -0 -3 -0 -0 -0 -0 -11 -6 -1 -1 -0 -0 -0 -0 -0 -0 -0 -0 -0 -0 -0 -0 -0 -0 -0
-0 -0 -0 -0 -0 -0 -0 -0 -0 -0 -0 -0 -0 -0 -0 -0 -0 -0 -0 -0 -0 -0 -1 -0 -0 -0 -0 -1 -2 -0 -0 -0 -0 -2 -0 -0 -0 -0 -0 -0 -0 -0 -0 -0 -0
-0 -0 -0 -0 -0 -0 -0 -0 -0 -0 -0 -0 -0 -0 -0 -0 -0 -0 -0 -0 -0 -0 -3 -0 -0 -0 -0 -0 -0 -0 -1 -0 -0 -0 -0 -0 -0 -0 -0 -0 -0 -0 -0 -0 -0
-0 -0 -0 -0 -0 -0 -0 -0 -0 -0 -0 -0 -1 -0 -0 -0 -0 -0 -0 -0 -0 -0 -0 -0 -1 -0 -0 -0 -0 -0 -0 -0 -0 -0 -0 -0 -0 -0 -0 -0 -0 -0 -0 -0 -0
-0 -0 -0 -0 -0 -0 -0 -0 -0 -0 -0 -0 -0 -0 -0 -0 -0 -0 -0 -0 -0 -0 -0 -0 -0 -0 -0 -0 -0 -0 -0 -0 -0 -0 -0 -0 -0 -0 -0 -0 -0 -0 -0 -0 -0
-0 -0 -0 -0 -0 -0 -0 -0 -0 -0 -0 -0 -0 -0 -0 -0 -0 -0 -0 -0 -0 -0 -0 -0 -0 -0 -0 -0 -0 -0 -0 -0 -0 -0 -0 -0 -0 -0 -0 -0 -0 -0 -0 -0 -0
-0 -0 -0 -0 -0 -0 -0 -0 -0 -0 -0 -0 -0 -0 -0 -0 -0 -0 -0 -0 -0 -0 -0 -0 -0 -0 -0 -0 -0 -0 -0 -0 -0 -0 -0 -0 -0 -0 -0 -0 -0 -0 -0 -0 -0
-0 -0 -0 -0 -0 -0 -0 -0 -0 -0 -0 -0 -0 -0 -0 -0 -0 -0 -0 -0 -0 -0 -0 -0 -0 -0 -0 -0 -0 -0 -0 -0 -0 -0 -0 -0 -0 -0 -0 -0 -0 -0 -0 -0 -0
-0 -0 -0 -0 -0 -0 -0 -0 -0 -0 -0 -0 -0 -0 -0 -0 -0 -0 -0 -0 -0 -0 -0 -0 -0 -0 -0 -0 -0 -0 -0 -0 -0 -0 -0 -0 -0 -0 -0 -0 -0 -0 -0 -0 -0
-0 -0 -0 -0 -0 -0 -0 -0 -0 -0 -0 -0 -0 -0 -0 -0 -0 -0 -0 -0 -0 -0 -0 -0 -0 -0 -0 -0 -0 -0 -0 -0 -0 -0 -0 -0 -0 -0 -0 -0 -0 -0 -0 -0 -0
-0 -0 -0 -0 -0 -0 -0 -0 -0 -0 -0 -0 -0 -0 -0 -0 -0 -0 -0 -0 -0 -0 -0 -0 -0 -0 -0 -0 -0 -0 -0 -0 -0 -0 -0 -0 -0 -0 -0 -0 -0 -0 -0 -0 -0
Wind_Speed
20 20 20 20 20 21 21 21 21 21 21 20 19 19 19 20 19 16 15 7 6 12 10 6 13 12 9 9 5 3 10 13 18 15 7 8 10 5 5 8 3 1 4 2 23
18 19 19 20 21 21 22 23 23 22 22 21 20 19 18 19 19 19 8 7 10 11 11 14 18 17 10 11 9 13 14 17 8 10 4 8 9 11 9 11 7 6 5 18 18
17 17 18 19 21 22 23 24 24 24 23 22 21 19 16 16 12 5 13 14 11 12 16 17 18 18 18 10 13 14 19 15 8 7 4 6 8 6 7 10 10 13 15 19 17
17 18 18 20 21 22 24 25 26 26 24 22 20 17 12 7 8 5 11 14 15 13 12 15 16 20 17 17 17 13 16 10 5 4 3 7 6 6 9 3 5 9 20 20 18
19 19 20 21 22 24 25 26 27 26 25 23 20 15 8 9 12 9 12 12 13 9 12 15 20 20 21 18 15 21 13 11 8 2 1 3 3 1 6 3 6 18 21 21 19
19 20 22 23 24 25 26 28 27 26 26 20 16 6 9 16 3 5 3 18 12 7 6 14 9 19 10 14 21 12 18 12 8 9 2 4 3 2 4 6 10 17 20 19 20
19 21 22 23 24 25 27 28 28 28 21 14 14 5 8 18 7 13 16 10 10 8 13 10 15 17 10 14 11 14 10 12 14 9 9 7 9 8 6 8 10 12 15 17 17
21 21 23 24 25 27 27 27 29 25 17 10 13 5 7 6 8 11 8 8 5 6 12 9 6 13 8 2 9 16 12 13 12 13 6 10 18 11 9 11 11 12 12 15 16
21 22 24 26 27 27 25 28 26 17 11 13 5 4 6 4 8 4 3 7 11 10 8 2 6 6 12 14 7 13 13 19 12 11 9 15 13 7 5 11 10 10 12 12 13
22 23 25 26 27 26 23 27 12 8 9 1 1 6 5 8 7 10 12 13 12 4 6 8 2 4 11 16 16 16 15 12 16 11 8 13 10 4 3 8 11 12 11 12 10
22 24 25 27 26 21 15 5 8 2 10 8 17 8 13 10 13 4 8 5 2 6 13 7 6 15 18 17 10 13 16 12 10 5 12 13 13 11 6 3 6 10 11 8 11
22 24 26 27 24 11 7 7 7 8 14 14 13 12 15 7 8 4 4 6 4 11 13 4 13 11 15 8 8 15 14 13 8 5 8 7 10 10 8 9 3 6 11 12 10
22 24 24 26 15 3 5 6 9 6 6 9 5 8 6 5 6 6 5 3 4 11 17 13 5 13 15 14 10 16 14 13 10 6 2 4 7 9 5 5 5 5 7 8 8
23 24 23 22 3 6 3 9 11 3 4 3 4 1 7 8 4 2 2 2 4 6 8 9 1 13 10 9 9 9 5 11 9 6 7 4 4 11 11 8 9 8 9 10 10
23 24 23 6 7 5 8 12 2 4 5 13 5 5 17 4 11 2 4 1 2 5 5 5 9 13 15 14 20 4 19 15 9 10 5 7 3 6 7 10 14 11 10 10 8
23 24 18 1 3 5 11 6 3 5 3 7 8 16 16 6 3 5 2 2 2 3 4 2 5 3 2 3 14 13 12 8 4 5 7 9 9 5 6 6 14 11 10 11 10
24 24 7 2 9 13 7 2 3 4 11 11 13 16 14 14 8 9 5 2 2 6 6 9 6 5 2 9 9 9 12 7 8 7 3 2 7 3 6 4 3 6 11 11 9
23 13 3 2 10 6 2 1 4 5 5 11 11 19 8 15 9 13 15 6 3 4 5 5 7 2 2 1 6 13 8 2 5 7 6 4 7 3 4 3 4 4 8 11 10
16 4 3 9 8 3 2 6 5 6 9 11 18 7 7 12 9 9 11 12 8 5 3 3 5 2 5 2 3 7 7 2 5 2 4 5 3 4 2 3 4 9 9 9 10
6 3 4 15 7 2 5 3 3 6 10 6 5 5 11 15 11 13 13 8 10 6 5 2 5 3 3 2 2 3 8 4 2 5 4 4 3 3 4 6 8 10 9 8 7
2 1 7 13 3 6 5 4 5 9 10 5 8 7 9 8 7 8 11 3 12 7 3 1 2 4 3 2 4 4 2 4 4 3 1 3 4 3 1 4 9 9 9 9 7
3 1 8 9 6 3 3 7 7 9 9 4 6 7 8 10 6 8 9 7 13 8 5 4 2 4 3 2 1 1 4 4 4 4 2 3 5 3 2 3 6 9 8 5 4
3 3 4 5 5 4 5 5 3 8 10 6 4 7 13 6 6 7 9 3 10 12 6 3 2 5 3 1 1 3 3 4 5 1 3 3 5 4 4 5 6 8 7 6 4
1 2 3 5 2 4 6 6 10 10 6 7 5 7 14 6 5 6 12 5 5 9 11 3 3 3 1 4 2 4 3 5 2 4 6 1 7 5 7 8 7 5 3 3 2
3 3 2 4 4 4 2 5 9 10 5 8 4 14 11 5 6 7 7 8 2 11 5 4 3 2 4 4 2 3 4 6 3 2 3 5 6 4 4 1 2 2 4 4 5
1 1 2 1 2 4 3 3 6 8 4 7 8 16 8 4 6 7 7 6 5 10 6 6 3 1 2 4 4 3 3 5 3 4 4 4 2 1 2 2 2 3 4 4 3
2 2 2 1 1 2 3 3 6 11 5 8 11 11 7 4 7 8 3 1 3 6 5 5 2 3 3 4 3 3 0 2 2 1 2 5 3 2 3 3 2 1 3 3 4
Wind_Direction
15 10 6 358 352 348 344 339 336 332 328 326 325 322 322 321 313 295 274 259 234 265 285 194 179 184 185 206 208 204 240 236 228 223 216 163 185 154 129 149 154 58 329 70 141
9 6 0 354 347 343 338 335 331 325 321 319 316 316 318 317 308 286 252 242 243 255 261 214 193 184 189 203 197 211 228 242 249 243 257 184 210 159 171 161 176 152 78 137 144
5 360 356 351 344 339 335 329 324 321 318 315 314 313 314 312 296 184 158 9 332 292 253 229 232 197 213 193 192 212 238 231 260 253 256 197 197 174 183 188 185 180 148 157 154
359 355 350 347 343 337 331 326 322 318 317 316 312 308 308 295 292 102 350 353 339 315 183 202 208 208 215 207 201 220 225 227 266 249 218 202 153 189 206 70 138 153 156 163 165
356 350 347 344 340 336 330 323 319 316 319 315 308 297 289 245 251 291 335 0 337 355 183 194 208 209 216 214 199 225 199 206 228 219 193 162 176 235 189 85 125 134 153 167 170
349 349 345 341 337 333 328 322 317 316 319 312 303 278 249 260 358 253 271 313 309 298 301 206 224 216 252 227 209 203 227 214 207 207 245 236 185 252 152 129 135 149 156 169 174
347 347 344 339 334 331 326 319 314 317 314 320 325 239 244 251 289 285 302 295 297 284 274 269 229 198 212 217 223 218 197 217 215 210 223 220 230 215 138 161 154 163 159 167 174
347 345 342 338 334 332 326 318 315 315 306 292 309 249 251 238 290 283 281 259 290 304 225 249 261 239 232 202 184 201 230 210 198 197 178 199 238 223 166 176 174 163 164 168 174
345 344 342 338 334 334 326 315 316 317 315 304 267 255 258 324 263 312 227 266 303 299 205 177 168 200 195 198 177 202 207 214 180 209 185 201 235 205 187 195 193 181 167 171 167
345 343 341 336 335 334 328 318 318 333 328 265 232 257 234 317 310 302 293 279 250 268 175 183 51 172 227 189 202 183 213 204 201 173 203 188 206 159 159 203 202 196 175 169 162
345 342 340 335 336 335 335 334 10 280 4 300 300 282 288 304 287 291 330 248 202 186 202 172 193 208 177 196 219 197 200 181 210 156 197 197 211 212 175 233 199 193 186 138 148
344 342 338 335 333 343 350 42 33 305 307 298 270 260 272 281 299 6 317 262 98 222 187 155 228 189 169 207 212 185 189 202 126 151 227 179 212 219 221 222 240 204 183 156 150
344 340 336 334 333 354 356 54 343 319 275 299 256 273 306 272 307 317 330 303 227 211 206 203 161 147 154 175 196 206 188 177 180 136 110 186 225 197 177 178 140 119 139 145 140
343 339 338 335 267 341 7 343 333 201 283 338 332 13 308 311 262 312 24 338 233 183 221 221 142 161 155 210 214 200 239 170 169 211 210 247 220 205 190 179 190 157 153 151 146
342 339 339 4 310 330 336 325 316 229 329 358 346 319 326 299 342 121 23 259 241 177 218 139 156 177 181 176 191 164 180 210 207 214 208 176 237 133 172 198 190 174 154 149 139
339 338 338 297 293 333 320 316 197 246 342 352 333 330 342 339 308 301 297 15 49 158 38 57 169 158 91 137 200 140 124 89 148 188 226 203 224 193 168 199 188 162 162 152 144
337 337 330 308 326 327 312 212 276 338 356 351 331 328 326 339 317 328 340 235 218 166 162 140 109 91 110 109 142 176 158 160 181 197 231 197 206 266 126 101 87 161 156 152 144
339 342 312 288 326 309 262 259 5 359 345 325 309 316 330 358 335 334 347 15 55 18 123 183 151 116 333 234 177 186 193 228 177 184 131 154 216 133 76 81 53 77 133 147 149
342 349 295 341 341 298 320 49 355 335 332 319 310 326 355 347 333 329 5 9 5 359 339 166 90 37 82 145 183 154 206 34 112 56 184 161 188 161 166 106 127 137 151 146 154
336 316 351 338 336 338 57 62 329 323 323 284 300 354 344 341 339 352 7 34 345 0 330 106 122 65 72 92 33 243 133 181 62 154 191 162 252 84 163 172 162 161 170 159 158
10 291 352 343 333 41 49 339 302 322 342 308 341 322 345 337 318 353 4 44 2 320 341 92 309 114 188 339 140 132 123 56 86 348 335 148 112 42 176 190 176 167 174 172 173
349 46 342 334 47 22 17 320 310 325 344 315 304 330 334 326 309 8 355 348 343 328 4 16 56 113 54 25 279 341 136 174 251 163 59 319 94 25 286 194 165 160 170 173 177
27 327 354 343 47 15 329 301 292 332 336 341 311 352 337 308 328 5 350 353 2 4 10 356 6 129 141 152 142 210 140 108 95 74 159 256 93 42 94 145 176 160 168 170 177
61 22 32 55 58 45 357 327 0 336 302 341 298 352 344 329 342 319 349 10 359 357 14 34 74 358 262 45 56 171 161 159 226 211 145 218 121 101 116 151 170 188 164 163 246
17 86 47 360 27 21 339 302 8 349 336 323 334 357 341 303 317 346 352 335 329 6 24 39 72 62 53 38 61 111 165 171 177 137 232 129 148 133 62 53 135 160 160 210 225
73 154 134 112 3 354 317 346 0 334 278 329 325 337 337 298 13 325 338 8 23 328 8 346 82 200 84 32 18 101 107 159 96 148 102 92 193 51 54 132 124 181 193 225 227
106 81 257 58 90 321 318 325 318 329 258 257 312 323 322 1 316 299 292 45 1 343 330 8 0 326 100 360 320 164 129 192 129 355 127 209 69 73 112 73 52 56 219 230 210